Weather History for Edinburg, TX

Change the Weather History Date:

Wednesday, February 12, 2014

  Actual Average (KMFE) Record (KMFE)
Temperature  
Mean Temperature 52 °F 64 °F  
Max Temperature 63 °F 75 °F 92 °F (1995)
Min Temperature 40 °F 54 °F 28 °F (1892)
Degree Days  
Heating Degree Days 14 4  
Month to date heating degree days 57  
Since 1 July heating degree days 484  
Cooling Degree Days 0 3  
Month to date cooling degree days 34  
Year to date cooling degree days 96  
Growing Degree Days 2 (Base 50)    
Moisture  
Dew Point 35 °F    
Average Humidity 64    
Maximum Humidity 82    
Minimum Humidity 31    
Precipitation  
Precipitation 0.00 in 0.04 in 1.38 in (1960)
Month to date precipitation 0.51  
Year to date precipitation 1.56  
Sea Level Pressure  
Sea Level Pressure 30.18 in    
Wind  
Wind Speed 9 mph (NNW)    
Max Wind Speed 15 mph    
Max Gust Speed 21 mph    
Visibility 10 miles    
Events      
T = Trace of Precipitation, MM = Missing Value Source: NWS Daily Summary

Daily Weather History Graph

Daily Weather History Graph

Search for Another Location

Airport:

Trip Planner

Search our weather history database for the weather conditions in past years. The results will help you decide how hot, cold, wet, or windy it might be!

Date:

Astronomy

Feb. 12, 2014 Rise Set
Actual Time 7:10 AM CST 6:23 PM CST
Civil Twilight 6:46 AM CST 6:47 PM CST
Nautical Twilight 6:19 AM CST 7:14 PM CST
Astronomical Twilight 5:52 AM CST 7:41 PM CST
Moon 4:41 PM CST (2/12) 5:23 AM CST (2/12)
Length of Visible Light 12h 00m
Length of Day
11h 12m
Waxing Gibbous, 95% of the Moon is Illuminated
Feb 12
Waxing Gibbous
Feb 14
Full
Feb 22
Last Quarter
Mar 1
New
Mar 8
First Quarter

Hourly Weather History & Observations

Time (CST) Temp. Windchill Dew Point Humidity Pressure Visibility Wind Dir Wind Speed Gust Speed Precip Events Conditions
12:15 AM 41.5 °F 33.8 °F 36.0 °F 81% 30.21 in 10.0 mi NNW 15.0 mph - N/A   Overcast
12:35 AM 41.5 °F 35.9 °F 36.3 °F 82% 30.22 in 10.0 mi NNW 9.2 mph 16.1 mph N/A   Overcast
12:55 AM 41.4 °F 34.7 °F 36.3 °F 82% 30.22 in 10.0 mi NNW 11.5 mph - N/A   Overcast
1:15 AM 41.4 °F 34.3 °F 36.0 °F 81% 30.23 in 10.0 mi NW 12.7 mph - N/A   Overcast
1:35 AM 41.4 °F 35.7 °F 35.8 °F 81% 30.24 in 10.0 mi NNW 9.2 mph 17.3 mph N/A   Overcast
1:55 AM 41.5 °F 35.4 °F 35.6 °F 79% 30.23 in 10.0 mi NNW 10.4 mph - N/A   Overcast
2:15 AM 41.5 °F 35.4 °F 35.1 °F 78% 30.22 in 10.0 mi North 10.4 mph - N/A   Overcast
2:35 AM 41.5 °F 35.0 °F 35.1 °F 78% 30.22 in 10.0 mi NNW 11.5 mph - N/A   Overcast
2:55 AM 41.5 °F 35.0 °F 34.7 °F 77% 30.22 in 10.0 mi NNW 11.5 mph - N/A   Overcast
3:15 AM 41.5 °F 35.9 °F 34.9 °F 77% 30.21 in 10.0 mi NNW 9.2 mph - N/A   Overcast
3:35 AM 41.5 °F 35.0 °F 34.2 °F 75% 30.21 in 10.0 mi NNW 11.5 mph - N/A   Overcast
3:55 AM 41.5 °F 35.0 °F 34.5 °F 76% 30.21 in 10.0 mi NNW 11.5 mph - N/A   Overcast
4:15 AM 41.4 °F 34.7 °F 34.7 °F 77% 30.21 in 10.0 mi North 11.5 mph - N/A   Overcast
4:35 AM 41.2 °F 36.0 °F 34.7 °F 78% 30.20 in 10.0 mi NNW 8.1 mph - N/A   Overcast
4:55 AM 40.5 °F 35.8 °F 34.7 °F 80% 30.20 in 10.0 mi North 6.9 mph - N/A   Overcast
5:15 AM 40.6 °F 35.4 °F 34.7 °F 79% 30.20 in 10.0 mi NNW 8.1 mph - N/A   Overcast
5:35 AM 40.5 °F 35.8 °F 34.3 °F 79% 30.20 in 10.0 mi North 6.9 mph - N/A   Overcast
5:55 AM 40.6 °F 36.7 °F 34.5 °F 79% 30.21 in 10.0 mi NNW 5.8 mph - N/A   Overcast
6:15 AM 40.6 °F 37.5 °F 34.9 °F 80% 30.21 in 10.0 mi NNW 4.6 mph - N/A   Overcast
6:35 AM 40.8 °F - 34.9 °F 79% 30.20 in 10.0 mi Calm Calm - N/A   Overcast
6:55 AM 40.6 °F 38.6 °F 35.2 °F 81% 30.21 in 10.0 mi NNW 3.5 mph - N/A   Overcast
7:15 AM 41.0 °F 39.0 °F 35.6 °F 81% 30.23 in 10.0 mi NNW 3.5 mph - N/A   Overcast
7:35 AM 41.2 °F - 35.8 °F 81% 30.23 in 10.0 mi Calm Calm - N/A   Overcast
7:55 AM 41.0 °F 37.1 °F 35.8 °F 82% 30.23 in 10.0 mi WNW 5.8 mph - N/A   Overcast
8:15 AM 41.4 °F 36.8 °F 36.0 °F 81% 30.24 in 10.0 mi WNW 6.9 mph - N/A   Overcast
8:35 AM 42.1 °F 37.7 °F 35.4 °F 77% 30.24 in 10.0 mi NW 6.9 mph - N/A   Overcast
8:55 AM 42.4 °F 37.5 °F 34.9 °F 75% 30.25 in 10.0 mi NW 8.1 mph - N/A   Overcast
9:15 AM 43.2 °F 38.4 °F 35.1 °F 73% 30.25 in 10.0 mi North 8.1 mph - N/A   Overcast
9:35 AM 43.9 °F 39.9 °F 34.9 °F 71% 30.26 in 10.0 mi North 6.9 mph - N/A   Mostly Cloudy
9:55 AM 44.8 °F 39.4 °F 34.7 °F 68% 30.26 in 10.0 mi NNW 10.4 mph - N/A   Mostly Cloudy
10:15 AM 46.0 °F 41.0 °F 34.9 °F 65% 30.25 in 10.0 mi NW 10.4 mph - N/A   Scattered Clouds
10:35 AM 47.7 °F - 35.1 °F 62% 30.25 in 10.0 mi NW 8.1 mph - N/A   Clear
10:55 AM 49.1 °F - 35.4 °F 59% 30.24 in 10.0 mi NNW 9.2 mph - N/A   Clear
11:15 AM 50.9 °F - 35.2 °F 55% 30.24 in 10.0 mi NNW 8.1 mph - N/A   Clear
11:35 AM 51.8 °F - 35.2 °F 53% 30.23 in 10.0 mi NNW 11.5 mph 17.3 mph N/A   Clear
11:55 AM 52.7 °F - 34.9 °F 51% 30.23 in 10.0 mi WNW 8.1 mph - N/A   Clear
12:15 PM 54.1 °F - 35.1 °F 49% 30.22 in 10.0 mi NW 12.7 mph 16.1 mph N/A   Clear
12:35 PM 54.9 °F - 35.1 °F 47% 30.20 in 10.0 mi NW 11.5 mph 16.1 mph N/A   Clear
12:55 PM 56.7 °F - 34.5 °F 43% 30.19 in 10.0 mi North 8.1 mph 17.3 mph N/A   Clear
1:15 PM 56.8 °F - 34.2 °F 42% 30.18 in 10.0 mi NNW 9.2 mph - N/A   Clear
1:35 PM 57.9 °F - 34.7 °F 42% 30.16 in 10.0 mi NNW 10.4 mph 19.6 mph N/A   Clear
1:55 PM 59.0 °F - 33.6 °F 38% 30.15 in 10.0 mi NNW 11.5 mph 20.7 mph N/A   Clear
2:15 PM 59.4 °F - 33.6 °F 38% 30.13 in 10.0 mi North 10.4 mph 17.3 mph N/A   Clear
2:35 PM 60.3 °F - 33.6 °F 37% 30.12 in 10.0 mi NW 9.2 mph - N/A   Clear
2:55 PM 60.4 °F - 33.3 °F 36% 30.10 in 10.0 mi NNW 10.4 mph 16.1 mph N/A   Clear
3:15 PM 61.0 °F - 32.9 °F 35% 30.09 in 10.0 mi WNW 10.4 mph - N/A   Clear
3:35 PM 61.9 °F - 32.9 °F 34% 30.09 in 10.0 mi NW 10.4 mph - N/A   Clear
3:55 PM 62.6 °F - 32.7 °F 33% 30.09 in 10.0 mi NNW 8.1 mph - N/A   Clear
4:15 PM 63.5 °F - 32.5 °F 31% 30.10 in 10.0 mi NNW 10.4 mph - N/A   Clear
4:35 PM 63.1 °F - 32.4 °F 32% 30.09 in 10.0 mi NNW 9.2 mph - N/A   Clear
4:55 PM 63.5 °F - 32.4 °F 31% 30.09 in 10.0 mi NNW 11.5 mph 16.1 mph N/A   Clear
5:15 PM 63.3 °F - 32.0 °F 31% 30.09 in 10.0 mi North 8.1 mph - N/A   Clear
5:35 PM 62.6 °F - 32.0 °F 32% 30.09 in 10.0 mi North 4.6 mph - N/A   Clear
6:15 PM 59.2 °F - 34.0 °F 39% 30.08 in 10.0 mi North 4.6 mph - N/A   Clear
6:55 PM 55.4 °F - 36.1 °F 48% 30.08 in 10.0 mi Calm Calm - N/A   Clear
7:15 PM 54.0 °F - 36.5 °F 52% 30.08 in 10.0 mi Calm Calm - N/A   Clear
7:35 PM 53.2 °F - 37.2 °F 55% 30.09 in 10.0 mi Calm Calm - N/A   Clear
7:55 PM 51.6 °F - 37.4 °F 58% 30.10 in 10.0 mi Calm Calm - N/A   Clear
8:15 PM 49.1 °F - 38.7 °F 67% 30.10 in 10.0 mi Calm Calm - N/A   Clear
8:35 PM 50.0 °F - 36.9 °F 61% 30.10 in 10.0 mi Calm Calm - N/A   Clear
8:55 PM 48.4 °F - 37.0 °F 65% 30.11 in 10.0 mi Calm Calm - N/A   Clear
9:15 PM 46.2 °F 44.1 °F 36.3 °F 68% 30.13 in 10.0 mi ESE 4.6 mph - N/A   Clear
9:35 PM 45.5 °F 42.5 °F 38.8 °F 78% 30.14 in 10.0 mi ESE 5.8 mph - N/A   Clear
9:55 PM 45.5 °F 43.2 °F 39.2 °F 79% 30.14 in 10.0 mi ESE 4.6 mph - N/A   Clear
10:15 PM 45.7 °F 42.7 °F 39.2 °F 78% 30.15 in 10.0 mi East 5.8 mph - N/A   Clear
10:35 PM 44.6 °F 43.1 °F 39.2 °F 81% 30.15 in 10.0 mi East 3.5 mph - N/A   Clear
10:55 PM 44.2 °F - 39.2 °F 82% 30.16 in 10.0 mi Calm Calm - N/A   Clear
11:15 PM 44.6 °F 43.1 °F 39.2 °F 81% 30.15 in 10.0 mi East 3.5 mph - N/A   Clear
11:35 PM 44.6 °F - 39.4 °F 82% 30.15 in 10.0 mi Calm Calm - N/A   Clear
11:55 PM 44.2 °F 42.7 °F 39.0 °F 82% 30.15 in 10.0 mi East 3.5 mph - N/A   Clear